Time,TemperatureF,DewpointF,PressureIn,WindDirection,WindDirectionDegrees,WindSpeedMPH,WindSpeedGustMPH,Humidity,HourlyPrecipIn,Conditions,Clouds,dailyrainin,SoftwareType,DateUTC
2013-02-22 00:02:00,35.0,29.0,30.11,South,171,2.0,6.0,80,0.11,,,0.12,,2013-02-22 05:02:00,
2013-02-22 00:22:00,35.0,30.0,30.11,SSW,192,2.0,7.0,83,0.12,,,0.14,,2013-02-22 05:22:00,
2013-02-22 00:32:00,35.0,31.0,30.11,SSW,208,2.0,9.0,84,0.13,,,0.17,,2013-02-22 05:32:00,
2013-02-22 00:42:00,35.0,31.0,30.10,SSW,210,5.0,12.0,84,0.12,,,0.20,,2013-02-22 05:42:00,
2013-02-22 00:52:00,35.0,31.0,30.10,SSW,210,5.0,12.0,84,0.12,,,0.20,,2013-02-22 05:52:00,
2013-02-22 01:01:00,35.0,31.0,30.09,SW,235,7.0,13.0,84,0.11,,,0.22,,2013-02-22 06:01:00,
2013-02-22 01:12:00,34.0,29.0,30.10,SSW,213,5.0,20.0,82,0.10,,,0.24,,2013-02-22 06:12:00,
2013-02-22 01:22:00,34.0,29.0,30.10,SSW,213,5.0,20.0,82,0.10,,,0.24,,2013-02-22 06:22:00,
2013-02-22 01:32:00,34.0,30.0,30.11,SSW,192,2.0,15.0,84,0.10,,,0.27,,2013-02-22 06:32:00,
2013-02-22 01:52:00,34.0,30.0,30.10,South,188,5.0,10.0,86,0.10,,,0.30,,2013-02-22 06:52:00,
2013-02-22 02:11:00,34.0,31.0,30.09,WSW,251,6.0,14.0,87,0.11,,,0.35,,2013-02-22 07:11:00,
2013-02-22 02:21:00,34.0,31.0,30.09,WSW,251,6.0,14.0,87,0.11,,,0.35,,2013-02-22 07:21:00,
2013-02-22 02:31:00,34.0,31.0,30.08,SSW,192,3.0,14.0,87,0.09,,,0.36,,2013-02-22 07:31:00,
2013-02-22 02:42:00,34.0,31.0,30.07,SW,223,9.0,18.0,87,0.07,,,0.37,,2013-02-22 07:42:00,
2013-02-22 02:52:00,34.0,31.0,30.07,SW,223,9.0,18.0,87,0.07,,,0.37,,2013-02-22 07:52:00,
2013-02-22 03:01:00,34.0,31.0,30.06,South,186,8.0,15.0,88,0.05,,,0.37,,2013-02-22 08:01:00,
2013-02-22 03:11:00,34.0,31.0,30.04,South,175,11.0,20.0,88,0.03,,,0.38,,2013-02-22 08:11:00,
2013-02-22 03:21:00,34.0,31.0,30.04,South,175,11.0,20.0,88,0.03,,,0.38,,2013-02-22 08:21:00,
2013-02-22 03:31:00,34.0,31.0,30.02,SW,223,7.0,17.0,87,0.02,,,0.38,,2013-02-22 08:31:00,
2013-02-22 03:42:00,34.0,31.0,30.02,SW,223,7.0,17.0,87,0.02,,,0.38,,2013-02-22 08:42:00,
2013-02-22 03:52:00,33.0,30.0,30.05,SSE,157,5.0,16.0,87,0.01,,,0.38,,2013-02-22 08:52:00,
2013-02-22 04:03:00,33.0,30.0,30.05,South,181,6.0,15.0,88,0.01,,,0.38,,2013-02-22 09:03:00,
2013-02-22 04:11:00,33.0,30.0,30.05,South,181,6.0,15.0,88,0.01,,,0.38,,2013-02-22 09:11:00,
2013-02-22 04:21:00,33.0,30.0,30.05,South,181,6.0,15.0,88,0.01,,,0.38,,2013-02-22 09:21:00,
2013-02-22 04:32:00,33.0,30.0,30.03,SE,132,2.0,16.0,89,0.00,,,0.38,,2013-02-22 09:32:00,
2013-02-22 04:42:00,33.0,30.0,30.05,SSW,209,5.0,17.0,90,0.01,,,0.39,,2013-02-22 09:42:00,
2013-02-22 04:52:00,33.0,30.0,30.05,SSW,209,5.0,17.0,90,0.01,,,0.39,,2013-02-22 09:52:00,
2013-02-22 05:01:00,33.0,30.0,30.04,SSW,194,5.0,14.0,90,0.01,,,0.39,,2013-02-22 10:01:00,
2013-02-22 05:11:00,32.0,29.0,30.03,SSE,160,6.0,13.0,90,0.01,,,0.39,,2013-02-22 10:11:00,
2013-02-22 05:21:00,32.0,29.0,30.03,SSE,160,6.0,13.0,90,0.01,,,0.39,,2013-02-22 10:21:00,
2013-02-22 05:32:00,32.0,29.0,30.04,South,178,6.0,13.0,90,0.01,,,0.39,,2013-02-22 10:32:00,
2013-02-22 05:42:00,32.0,29.0,30.04,South,178,6.0,13.0,90,0.01,,,0.39,,2013-02-22 10:42:00,
2013-02-22 05:52:00,33.0,30.0,30.06,SW,215,2.0,14.0,90,0.00,,,0.39,,2013-02-22 10:52:00,
2013-02-22 06:01:00,33.0,30.0,30.06,SW,215,5.0,14.0,90,0.00,,,0.39,,2013-02-22 11:01:00,
2013-02-22 06:11:00,33.0,30.0,30.06,SSW,192,6.0,15.0,89,0.00,,,0.39,,2013-02-22 11:11:00,
2013-02-22 06:22:00,33.0,30.0,30.06,SSW,192,6.0,15.0,89,0.00,,,0.39,,2013-02-22 11:22:00,
2013-02-22 06:32:00,33.0,30.0,30.06,SSW,196,7.0,17.0,88,0.01,,,0.40,,2013-02-22 11:32:00,
2013-02-22 06:42:00,33.0,30.0,30.06,SSW,196,7.0,17.0,88,0.01,,,0.40,,2013-02-22 11:42:00,
2013-02-22 06:52:00,33.0,30.0,30.08,SSW,203,7.0,20.0,88,0.01,,,0.40,,2013-02-22 11:52:00,
2013-02-22 07:02:00,33.0,30.0,30.08,SSW,203,7.0,20.0,88,0.01,,,0.40,,2013-02-22 12:02:00,
2013-02-22 07:11:00,33.0,30.0,30.08,SSW,203,7.0,20.0,88,0.01,,,0.40,,2013-02-22 12:11:00,
2013-02-22 07:22:00,33.0,30.0,30.08,SSW,203,7.0,20.0,88,0.01,,,0.40,,2013-02-22 12:22:00,
2013-02-22 07:32:00,32.0,29.0,30.10,SSW,213,7.0,16.0,87,0.00,,,0.40,,2013-02-22 12:32:00,
2013-02-22 07:42:00,32.0,29.0,30.10,SSW,213,7.0,16.0,87,0.00,,,0.40,,2013-02-22 12:42:00,
2013-02-22 07:52:00,32.0,28.0,30.11,South,180,6.0,20.0,86,0.00,,,0.40,,2013-02-22 12:52:00,
2013-02-22 08:02:00,32.0,28.0,30.11,South,180,6.0,20.0,86,0.00,,,0.40,,2013-02-22 13:02:00,
2013-02-22 08:11:00,32.0,28.0,30.11,South,180,6.0,20.0,86,0.00,,,0.40,,2013-02-22 13:11:00,
2013-02-22 08:22:00,33.0,29.0,30.10,SE,144,9.0,16.0,86,0.00,,,0.40,,2013-02-22 13:22:00,
2013-02-22 08:32:00,33.0,29.0,30.11,SSW,210,3.0,21.0,86,0.00,,,0.40,,2013-02-22 13:32:00,
2013-02-22 08:42:00,33.0,29.0,30.11,SSW,210,3.0,21.0,86,0.00,,,0.40,,2013-02-22 13:42:00,
2013-02-22 08:52:00,33.0,29.0,30.11,SSW,210,3.0,21.0,86,0.00,,,0.40,,2013-02-22 13:52:00,
2013-02-22 09:01:00,33.0,29.0,30.10,South,169,6.0,22.0,84,0.01,,,0.41,,2013-02-22 14:01:00,
2013-02-22 09:11:00,34.0,29.0,30.09,South,181,6.0,16.0,83,0.01,,,0.41,,2013-02-22 14:11:00,
2013-02-22 09:22:00,34.0,29.0,30.09,South,181,6.0,16.0,83,0.01,,,0.41,,2013-02-22 14:22:00,
2013-02-22 09:32:00,34.0,29.0,30.09,SSW,193,6.0,13.0,81,0.02,,,0.42,,2013-02-22 14:32:00,
2013-02-22 09:42:00,35.0,29.0,30.09,WSW,241,2.0,14.0,79,0.02,,,0.42,,2013-02-22 14:42:00,
2013-02-22 09:53:00,35.0,29.0,30.09,WSW,241,2.0,14.0,79,0.02,,,0.42,,2013-02-22 14:53:00,
2013-02-22 10:01:00,35.0,29.0,30.09,ESE,121,3.0,12.0,79,0.01,,,0.42,,2013-02-22 15:01:00,
2013-02-22 10:11:00,35.0,29.0,30.09,ESE,121,3.0,12.0,79,0.01,,,0.42,,2013-02-22 15:11:00,
2013-02-22 10:22:00,35.0,29.0,30.09,ESE,121,3.0,12.0,79,0.01,,,0.42,,2013-02-22 15:22:00,
2013-02-22 10:32:00,36.0,29.0,30.09,SE,134,3.0,10.0,76,0.01,,,0.43,,2013-02-22 15:32:00,
2013-02-22 10:42:00,36.0,29.0,30.09,SE,134,3.0,10.0,76,0.01,,,0.43,,2013-02-22 15:42:00,
2013-02-22 10:52:00,37.0,28.0,30.11,SW,218,8.0,16.0,69,0.01,,,0.43,,2013-02-22 15:52:00,
2013-02-22 11:02:00,38.0,27.0,30.09,SW,225,5.0,18.0,64,0.02,,,0.44,,2013-02-22 16:02:00,
2013-02-22 11:12:00,38.0,27.0,30.11,South,187,5.0,15.0,63,0.02,,,0.44,,2013-02-22 16:12:00,
2013-02-22 11:22:00,38.0,27.0,30.11,South,187,5.0,15.0,63,0.02,,,0.44,,2013-02-22 16:22:00,
2013-02-22 11:32:00,39.0,28.0,30.11,SSW,198,4.0,16.0,64,0.02,,,0.45,,2013-02-22 16:32:00,
2013-02-22 11:42:00,39.0,28.0,30.11,SSW,198,4.0,16.0,64,0.02,,,0.45,,2013-02-22 16:42:00,
2013-02-22 11:52:00,39.0,29.0,30.11,SSW,204,6.0,17.0,66,0.02,,,0.45,,2013-02-22 16:52:00,
2013-02-22 12:01:00,40.0,30.0,30.09,SW,222,2.0,17.0,68,0.02,,,0.46,,2013-02-22 17:01:00,
2013-02-22 12:11:00,40.0,30.0,30.09,SW,227,7.0,17.0,68,0.02,,,0.46,,2013-02-22 17:11:00,
2013-02-22 12:21:00,40.0,30.0,30.09,SW,227,7.0,17.0,68,0.02,,,0.46,,2013-02-22 17:21:00,
2013-02-22 12:42:00,40.0,30.0,30.09,SW,227,7.0,17.0,68,0.02,,,0.46,,2013-02-22 17:42:00,
2013-02-22 12:52:00,40.0,31.0,30.08,SW,232,5.0,16.0,71,0.02,,,0.47,,2013-02-22 17:52:00,
2013-02-22 13:01:00,40.0,31.0,30.08,SW,232,5.0,16.0,71,0.02,,,0.47,,2013-02-22 18:01:00,
2013-02-22 13:12:00,39.0,32.0,30.08,South,188,8.0,13.0,76,0.01,,,0.47,,2013-02-22 18:12:00,
2013-02-22 13:22:00,39.0,32.0,30.08,South,188,8.0,13.0,76,0.01,,,0.47,,2013-02-22 18:22:00,
2013-02-22 13:32:00,40.0,34.0,30.07,SE,141,7.0,13.0,78,0.00,,,0.47,,2013-02-22 18:32:00,
2013-02-22 13:42:00,40.0,34.0,30.07,SE,141,7.0,13.0,78,0.00,,,0.47,,2013-02-22 18:42:00,
2013-02-22 13:52:00,40.0,34.0,30.06,WNW,288,1.0,12.0,80,0.00,,,0.47,,2013-02-22 18:52:00,
2013-02-22 14:01:00,41.0,36.0,30.05,SW,217,2.0,14.0,81,0.00,,,0.47,,2013-02-22 19:01:00,
2013-02-22 14:11:00,42.0,36.0,30.04,South,179,7.0,13.0,80,0.00,,,0.47,,2013-02-22 19:11:00,
2013-02-22 14:21:00,42.0,36.0,30.04,South,179,7.0,13.0,80,0.00,,,0.47,,2013-02-22 19:21:00,
2013-02-22 14:31:00,43.0,38.0,30.03,South,190,3.0,16.0,81,0.00,,,0.47,,2013-02-22 19:31:00,
2013-02-22 15:22:00,44.0,39.0,30.03,ESE,104,3.0,6.0,82,0.00,,,0.47,,2013-02-22 20:22:00,
2013-02-22 16:01:00,46.0,40.0,30.02,SSE,166,6.0,17.0,80,0.00,,,0.47,,2013-02-22 21:01:00,
2013-02-22 16:11:00,46.0,40.0,30.01,SE,145,7.0,16.0,79,0.00,,,0.47,,2013-02-22 21:11:00,
2013-02-22 16:21:00,46.0,40.0,30.01,SE,145,7.0,16.0,79,0.00,,,0.47,,2013-02-22 21:21:00,
2013-02-22 16:42:00,46.0,40.0,30.01,South,181,5.0,13.0,79,0.00,,,0.47,,2013-02-22 21:42:00,
2013-02-22 16:52:00,46.0,40.0,30.01,South,181,5.0,13.0,79,0.00,,,0.47,,2013-02-22 21:52:00,
2013-02-22 17:01:00,46.0,40.0,29.98,SSE,152,1.0,10.0,79,0.00,,,0.47,,2013-02-22 22:01:00,
2013-02-22 17:21:00,45.0,39.0,30.00,SW,223,1.0,6.0,80,0.00,,,0.47,,2013-02-22 22:21:00,
2013-02-22 17:52:00,44.0,39.0,30.00,SSW,200,4.0,7.0,83,0.00,,,0.47,,2013-02-22 22:52:00,
2013-02-22 18:21:00,43.0,38.0,30.01,South,173,3.0,10.0,84,0.00,,,0.47,,2013-02-22 23:21:00,
2013-02-22 18:31:00,43.0,38.0,30.01,South,182,3.0,12.0,84,0.00,,,0.47,,2013-02-22 23:31:00,
2013-02-22 18:52:00,42.0,38.0,30.02,South,189,2.0,10.0,84,0.00,,,0.47,,2013-02-22 23:52:00,
2013-02-22 19:02:00,42.0,38.0,30.02,South,186,3.0,7.0,85,0.00,,,0.47,,2013-02-23 00:02:00,
2013-02-22 19:11:00,42.0,38.0,30.01,SW,234,4.0,6.0,85,0.00,,,0.47,,2013-02-23 00:11:00,
2013-02-22 19:21:00,42.0,38.0,30.01,SW,234,4.0,6.0,85,0.00,,,0.47,,2013-02-23 00:21:00,
2013-02-22 19:32:00,42.0,38.0,30.01,South,175,2.0,9.0,86,0.00,,,0.47,,2013-02-23 00:32:00,
2013-02-22 20:21:00,42.0,38.0,30.02,South,183,3.0,6.0,87,0.00,,,0.47,,2013-02-23 01:21:00,
2013-02-22 20:32:00,42.0,38.0,30.02,SSE,159,0.0,6.0,87,0.00,,,0.47,,2013-02-23 01:32:00,
2013-02-22 20:52:00,42.0,38.0,30.01,SW,221,1.0,3.0,87,0.00,,,0.47,,2013-02-23 01:52:00,
2013-02-22 21:01:00,41.0,37.0,30.01,SW,220,1.0,3.0,87,0.00,,,0.47,,2013-02-23 02:01:00,
2013-02-22 21:32:00,41.0,38.0,30.01,SW,217,1.0,3.0,88,0.00,,,0.47,,2013-02-23 02:32:00,
2013-02-22 21:52:00,41.0,37.0,30.00,SW,217,2.0,3.0,87,0.00,,,0.47,,2013-02-23 02:52:00,
2013-02-22 22:11:00,41.0,38.0,30.01,SW,219,1.0,3.0,88,0.00,,,0.47,,2013-02-23 03:11:00,
2013-02-22 22:21:00,41.0,38.0,30.01,SW,219,1.0,3.0,88,0.00,,,0.47,,2013-02-23 03:21:00,
2013-02-22 22:32:00,41.0,38.0,30.01,SW,219,1.0,3.0,88,0.00,,,0.47,,2013-02-23 03:32:00,
2013-02-22 23:01:00,40.0,37.0,29.98,SW,219,1.0,5.0,88,0.00,,,0.46,,2013-02-23 04:01:00,
2013-02-22 23:11:00,40.0,37.0,29.98,SSW,192,1.0,6.0,88,0.00,,,0.45,,2013-02-23 04:11:00,
2013-02-22 23:21:00,40.0,37.0,29.98,SSW,192,1.0,6.0,88,0.00,,,0.45,,2013-02-23 04:21:00,
2013-02-22 23:32:00,39.0,36.0,29.97,SW,219,2.0,9.0,88,0.00,,,0.42,,2013-02-23 04:32:00,
2013-02-22 23:41:00,39.0,36.0,29.97,SW,219,2.0,9.0,88,0.00,,,0.42,,2013-02-23 04:41:00,
2013-02-22 23:52:00,39.0,36.0,29.96,SW,221,2.0,6.0,88,0.00,,,0.39,,2013-02-23 04:52:00,